Regional Weather Roundup
Issued by NWS

Home | Current Version | Previous Version | Text Only | Print | Product List | Glossary Off
Versions: 1 2 3 4 5 6 7 8 9 10 11 12 13 14 15 16 17 18 19 20 21 22 23 24 25 26 27 28 29 30 31 32 33 34 35 36 37 38 39 40 41 42 43 44 45 46 47 48 49 50

665
ASUS45 KPSR 240610
RWRAZ

ARIZONA HOURLY REGIONAL WEATHER ROUNDUP
NATIONAL WEATHER SERVICE PHOENIX AZ
1100 PM MST SAT JUL 23 2016

NOTE: FAIR INDICATES FEW OR NO CLOUDS BELOW 12,000 FEET WITH NO
SIGNIFICANT WEATHER AND/OR OBSTRUCTIONS TO VISIBILITY.

AZZ001>003-036-240700-
NORTHWEST ARIZONA

CITY           SKY/WX    TMP DP  RH WIND       PRES   REMARKS
BULLHEAD CITY  CLEAR    100  55  22 CALM      29.71R
KINGMAN        CLEAR     88  49  25 SW12      29.96S
6HR MIN TEMP:  88; 6HR MAX TEMP: 103;

$$

AZZ004>008-015-016-018-240700-
NORTH CENTRAL ARIZONA

CITY           SKY/WX    TMP DP  RH WIND       PRES   REMARKS
GRAND CANYON   PTCLDY    65  52  62 CALM      30.26R
6HR MIN TEMP:  65; 6HR MAX TEMP:  91; 6HR PCP:  0.01;

WILLIAMS       PTCLDY    68  46  45 S10       30.34F
PRESCOTT       CLEAR     76  53  44 VRB5      30.14R
6HR MIN TEMP:  75; 6HR MAX TEMP:  96;

FLAGSTAFF      MOCLDY    66  51  58 CALM      30.26F
6HR MIN TEMP:  60; 6HR MAX TEMP:  77; 6HR PCP:  0.09;

PAYSON         CLEAR     81  43  26 CALM      30.15R
PAGE           PTCLDY    92  41  17 S6        29.99R
6HR MIN TEMP:  91; 6HR MAX TEMP: 103;

$$

AZZ009>014-017-240700-
NORTHEAST ARIZONA

CITY           SKY/WX    TMP DP  RH WIND       PRES   REMARKS
WINSLOW        PTCLDY    74  43  32 CALM      30.08F
6HR MIN TEMP:  74; 6HR MAX TEMP: 100;

SAINT JOHNS    CLOUDY    76  46  34 E5        30.18S
6HR MIN TEMP:  76; 6HR MAX TEMP:  96;

WINDOW ROCK    CLOUDY    66  53  63 CALM      30.28F
6HR MIN TEMP:  66; 6HR MAX TEMP:  88; 6HR PCP: TRACE;

SHOW LOW       CLOUDY    68  46  45 NE10      30.26R
$$

AZZ023-240700-
GREATER PHOENIX AREA

CITY           SKY/WX    TMP DP  RH WIND       PRES   REMARKS
PHOENIX        PTCLDY   100  60  26 W16       29.75R HX 100
6HR MIN TEMP: 100; 6HR MAX TEMP: 111;

BUCKEYE        CLEAR     97  52  21 SW8       29.78S
LUKE AFB       CLEAR     99  59  26 SW15      29.74S
6HR MIN TEMP:  99; 6HR MAX TEMP: 111;

DEER VALLEY    CLEAR     98  58  26 SW10      29.78R
6HR MIN TEMP:  98; 6HR MAX TEMP: 110;

SCOTTSDALE     CLEAR     99  59  26 W12       29.80R
6HR MIN TEMP:  99; 6HR MAX TEMP: 110;

MESA-GATEWAY   CLEAR     97  59  28 SW5       29.79R
$$

AZZ027-028-240700-
SOUTHWEST MARICOPA COUNTY AND PINAL COUNTY

CITY           SKY/WX    TMP DP  RH WIND       PRES   REMARKS
CASA GRANDE    CLEAR     95  59  30 W7        29.82R
6HR MIN TEMP:  95; 6HR MAX TEMP: 109;

GILA BEND      FAIR      96  58  28 SW10      29.75S
6HR MIN TEMP:  96; 6HR MAX TEMP: 111;

$$

AZZ503-504-507>509-240700-
SOUTHEAST ARIZONA

CITY           SKY/WX    TMP DP  RH WIND       PRES   REMARKS
TUCSON         CLEAR     92  58  31 W9        29.92S
6HR MIN TEMP:  92; 6HR MAX TEMP: 105;

DAVIS-MONTHAN  CLEAR     92  58  32 W9        29.90S
6HR MIN TEMP:  92; 6HR MAX TEMP: 103;

NOGALES        CLEAR     80  61  52 VRB3      30.05R
6HR MIN TEMP:  80; 6HR MAX TEMP:  93; 6HR PCP: TRACE;

SIERRA VISTA   PTCLDY    83  51  32 W12       30.09R
6HR MIN TEMP:  83; 6HR MAX TEMP:  95;

DOUGLAS        MOCLDY    81  56  42 W5        30.03R
6HR MIN TEMP:  80; 6HR MAX TEMP:  99;

SAFFORD        MOCLDY    85  54  34 W10       29.91F
6HR MIN TEMP:  85; 6HR MAX TEMP: 105;

$$

AZZ020-021-025-026-031-240700-
SOUTHWEST ARIZONA

CITY           SKY/WX    TMP DP  RH WIND       PRES   REMARKS
YUMA           CLEAR     90  67  46 S13       29.72R
6HR MIN TEMP:  90; 6HR MAX TEMP: 108;

$$

CAZ031-033-041-043-047-048-061-240700-
SOUTHERN CALIFORNIA

CITY           SKY/WX    TMP DP  RH WIND       PRES   REMARKS
DOWNTOWN L.A.  CLEAR     75  65  70 CALM      29.83F
6HR MIN TEMP:  74; 6HR MAX TEMP:  84;

L.A. AIRPORT   MOCLDY    72  64  76 E6        29.84S
6HR MIN TEMP:  72; 6HR MAX TEMP:  77;

SAN DIEGO      PTCLDY    69  65  86 SW5       29.84S
6HR MIN TEMP:  68; 6HR MAX TEMP:  71;

BURBANK        CLEAR     76  63  64 N6        29.85F
6HR MIN TEMP:  76; 6HR MAX TEMP:  84;

ONTARIO        CLEAR     80  55  42 SW5       29.86S
6HR MIN TEMP:  79; 6HR MAX TEMP:  95;

RIVERSIDE      CLEAR     78  58  49 CALM      29.87R
6HR MIN TEMP:  78; 6HR MAX TEMP:  96;

PALM SPRINGS   CLEAR     97  51  20 NW7       29.75R
6HR MIN TEMP:  97; 6HR MAX TEMP: 109;

EL CENTRO NAS  PTCLDY    92  67  43 SE14      29.70R
6HR MIN TEMP:  92; 6HR MAX TEMP: 111; 6HR PCP: TRACE;

IMPERIAL       PTCLDY    94  70  45 SE13      29.68R HX 100
6HR MIN TEMP:  94; 6HR MAX TEMP: 113;

BLYTHE         CLEAR     97  64  33 S12       29.72R
6HR MIN TEMP:  97; 6HR MAX TEMP: 112;

NEEDLES        PTCLDY   104  53  18 SW14      29.72R HX 102
6HR MIN TEMP: 104; 6HR MAX TEMP: 115;

$$

NVZ020-UTZ003-240700-
SOUTHERN NEVADA-UTAH

CITY           SKY/WX    TMP DP  RH WIND       PRES   REMARKS
LAS VEGAS      CLEAR     99  34  10 S7        29.76R
6HR MIN TEMP:  99; 6HR MAX TEMP: 112;

SALT LAKE CITY CLEAR     75  31  19 S6        30.03S
6HR MIN TEMP:  74; 6HR MAX TEMP:  94;

$$

NMZ009-TXZ055-240700-
NEW MEXICO-WEST TEXAS

CITY           SKY/WX    TMP DP  RH WIND       PRES   REMARKS
ALBUQUERQUE    CLOUDY    84  48  28 SW10      30.15S
6HR MIN TEMP:  83; 6HR MAX TEMP: 100; 6HR PCP: TRACE;

EL PASO        PTCLDY    88  43  20 CALM      29.94R
6HR MIN TEMP:  86; 6HR MAX TEMP: 103;

$$


........................KEY........................
SKY/WX - SKY CONDITION/WEATHER
TMP    - TEMPERATURE IN FAHRENHEIT
DP     - DEW POINT IN FAHRENHEIT
RH     - RELATIVE HUMIDITY IN PERCENT
WIND   - DIRECTION AND SPEED IN MILES PER HOUR (MPH)
VRB    - VARIABLE WIND DIRECTION
PRES   - MEAN SEA LEVEL PRESSURE IN INCHES OF MERCURY
         F - FALLING PRESSURE   R - RISING PRESSURE
         S - STEADY PRESSURE
VSB    - VISIBILITY IN MILES
HX     - HEAT INDEX IN FAHRENHEIT
WCI    - WIND CHILL INDEX IN FAHRENHEIT
TC     - TEMPERATURE IN CELSIUS WHICH IS ALSO KNOWN AS
         TEMPERATURE IN CENTIGRADE
AFB    - AIR FORCE BASE
         LUKE AFB IS LUKE AIR FORCE BASE
         DAVIS-MONTHAN IS DAVIS-MONTHAN AIR FORCE BASE
NAS    - NAVAL AIR STATION
         EL CENTRO NAS IS EL CENTRO NAVAL AIR STATION
N/A    - NOT AVAILABLE





USA.gov is the U.S. government's official web portal to all federal, state and local government web resources and services.